Home   Weather   Genoa   Past weeks

Flag for Italy Past Weather in Genoa, Italy — Yesterday and Last 2 Weeks

Now
81 °F

Scattered clouds.


Feels Like: 85 °F
Forecast: 71 / 85 °F
Wind: 15 mph from Southeast

Location: Genova / Sestri

Current Time: Aug 19, 2017 at 3:03:38 pm

Latest Report: Aug 19, 2017 at 2:20 pm


Visibility: N/A

Pressure: 29.92 "Hg

Humidity: 74%

Dew Point: 72 °F

Location of GenoaLocation

Past Weather in Genoa — Graph

°F

Genoa Temperature Yesterday

Maximum temperature yesterday: 84 °F (at 1:50 pm)
Minimum temperature yesterday: 75 °F (at 6:50 am)
Average temperature yesterday: 80 °F

High & Low Weather Summary for the Past Weeks

 TemperatureHumidityPressure
High91 °F (Aug 7, 2:50 pm)89% (Aug 6, 8:50 am)30.15 "Hg (Aug 6, 8:50 am)
Low64 °F (Aug 12, 4:20 am)18% (Aug 12, 3:20 pm)29.80 "Hg (Aug 11, 5:20 am)
Average78 °F60%29.97 "Hg
* Reported Aug 4 1:20 pm — Aug 19 1:20 pm, Genoa. Weather by CustomWeather, © 2017

Note: Actual official high and low records may vary slightly from our data, if they occured in-between our weather recording intervals... More about our weather records

Advertising

Genoa Weather History for the Previous 24 Hours

Scroll right to see more
 ConditionsComfort  
Time TempWeatherWind HumidityBarometerVisibility
1:20 pm
Sat, Aug 19
79 °FScattered clouds.20 mph84%29.95 "HgN/A
12:50 pm79 °FPartly sunny.17 mph79%29.95 "HgN/A
12:20 pm79 °FPartly sunny.8 mph79%29.95 "HgN/A
11:20 am81 °FScattered clouds.14 mph74%29.95 "HgN/A
10:50 am79 °FScattered clouds.14 mph79%29.95 "HgN/A
10:20 am79 °FScattered clouds.15 mph79%29.95 "HgN/A
9:50 am79 °FPartly sunny.16 mph74%29.95 "HgN/A
9:20 am79 °FPartly sunny.14 mph74%29.92 "HgN/A
8:50 am79 °FPartly sunny.13 mph74%29.95 "HgN/A
8:20 am79 °FPartly sunny.12 mph74%29.92 "HgN/A
7:50 am77 °FPartly sunny.7 mph74%29.92 "HgN/A
7:20 am77 °FPartly sunny.8 mph69%29.92 "HgN/A
6:50 am77 °FPartly sunny.6 mph74%29.92 "HgN/A
6:20 am77 °FPassing clouds.7 mph79%29.92 "HgN/A
5:20 am77 °FPassing clouds.9 mph79%29.92 "HgN/A
4:50 am77 °FPassing clouds.3 mph74%29.92 "HgN/A
4:20 am77 °FPassing clouds.5 mph74%29.92 "HgN/A
3:50 am77 °FPassing clouds.6 mph79%29.92 "HgN/A
3:20 am77 °FPassing clouds.7 mph79%29.92 "HgN/A
2:50 am77 °FPassing clouds.3 mph79%29.92 "HgN/A
2:20 am77 °FPassing clouds.3 mph69%29.95 "HgN/A
1:50 am77 °FPassing clouds.3 mph69%29.95 "HgN/A
1:20 am77 °FPassing clouds.3 mph61%29.95 "HgN/A
12:50 am77 °FPassing clouds.3 mph69%29.95 "HgN/A
12:20 am77 °FPassing clouds.3 mph74%29.95 "HgN/A
11:50 pm
Fri, Aug 18
77 °FPassing clouds.3 mph83%29.95 "HgN/A
11:20 pm79 °FPassing clouds.3 mph84%29.95 "HgN/A
10:50 pm77 °FPassing clouds.3 mph83%29.95 "HgN/A
10:20 pm77 °FPassing clouds.2 mph89%29.95 "HgN/A
9:50 pm77 °FClear.2 mph89%29.95 "Hg10 mi
9:20 pm79 °FClear.3 mph84%29.95 "Hg10 mi
8:50 pm79 °FPassing clouds.3 mph79%29.95 "HgN/A
8:20 pm79 °FPassing clouds.2 mph84%29.95 "HgN/A
7:50 pm81 °FPassing clouds.2 mph70%29.95 "HgN/A
7:20 pm81 °FPassing clouds.3 mph70%29.95 "HgN/A
6:50 pm81 °FPassing clouds.5 mph74%29.95 "HgN/A
6:20 pm81 °FPassing clouds.3 mph70%29.95 "HgN/A
5:50 pm81 °FPassing clouds.5 mph74%29.98 "HgN/A
5:20 pm82 °FPassing clouds.5 mph66%29.98 "HgN/A
4:50 pm82 °FPassing clouds.5 mph66%29.98 "HgN/A
4:20 pm82 °FPassing clouds.5 mph66%30.01 "HgN/A
3:50 pm84 °FPassing clouds.5 mph58%30.01 "HgN/A
3:20 pm84 °FPassing clouds.5 mph58%30.01 "HgN/A
Weather by CustomWeather, © 2017

See weather overviewHow to use our weather pages